Showing default

CENTISPACE-1 S9, 62578

Orbit data source: Space-Track

CENTISPACE-1 S9, 62578 is a payload satellite owned by Centispace (CN) in LEO that was launched on Mon, 13 Jan 2025 UTC via a JIELONG-3 launch vehicle from the Yellow Sea Launch Area, China (YSLA). Payload-class satellites include a variety of spacecraft equipped with specific instruments for various scientific and technological missions. These include communications satellites like Starlink; space stations such as the ISS; scientific satellites like the Hubble; Earth observation satellites from companies like Planet Labs, Umbra, and HawkEye 360; GPS; miniature CubeSats for education and research; and military/defense satellites.

Loading next visibility...
Identifier
62578, 2025-007D
Orbit
LEO
Country
Flag of CNCN / PRC
Related business
Manufacturer
DFH Shenzhen
Mission
Operational Commercial Nav/Com
Bus & Motor
WK01, Unknown motor
Mass
140 kg wet, 140 kg dry
Launch date (UTC)
2025-01-13 (1 year ago)
Launch vehicle
JIELONG-3
Launch site
Yellow Sea Launch Area, China (YSLA)
Object type
Payload
Rocket body
Debris
Shape & HBR
Box + 2 Pan, 1.0 m
Radar Cross Section
0.833 m², Medium (>0.1 m² and < 1m²)

Expand to show TLE details & history
Last TLE update: 7 hours ago

TLE from 7 hours ago
0 CENTISPACE-1 S9
1 62578U 25007D   26124.44629968 -.00000091  00000-0  47385-4 0  9997
2 62578  54.9816  85.2519 0011150 358.6189   1.4734 13.80590655 68679
Epoch: 2026-05-04T10:42Z
TLE epoch observation values (Epoch: 2026-05-04T10:42:40.292Z)
Latitude
-0.00007°
Longitude
62.24859°
Altitude
954.633 km
Speed
7.379 km/s
True Right ascension
05h 41m 00s
True Declination
0° 00' 00"
Sunlit
Object was in daylight at epoch
Visualization orbit readout
Latitude
Unknown
Longitude
Unknown
Altitude
Unknown
Speed
Unknown
Apparent Right ascension
Unknown
Apparent Declination
Unknown
Sunlit
N/A
Visualization observer readout
Local Sidereal Time
01:38:51
Azimuth
Unknown
Elevation
Unknown
Doppler factor
Unknown
Orbital elements
Apogee altitude
969.945 km
Perigee altitude
953.577 km
Semi-major axis
7,339.898 km
Eccentricity
0.00112
Inclination
54.9816°
RAAN
85.2519°
Arg. of periapsis
358.6189°
True anomaly
1.47669°
Mean anomaly
1.4734°
Eccentric anomaly
1.47504°
Mean motion
3.4515 °/min
Orbital period
104.3 mins
BSTAR
0.000047385
Loading maneuver chart data...
Computing Atmospheric mass density...
Loading historical data...
Loading historical data...
Loading historical data...
Loading historical data...
Loading historical data...
Loading historical data...
Loading historical data...

Documentation

Showing up to 5 results
|